星链-30278 (STARLINK-30278 )

导读 | 星芒AI

STARLINK-30278 是 SpaceX Starlink 项目中的一颗低轨通信卫星,属于第三代星链卫星(Starlink V1.5 或 V2)。该卫星于2023年发射,运行在约550公里高度的近地轨道,旨在为全球用户提供高速互联网服务。它采用先进推进系统和激光通信技术,提高网络稳定性和数据传输效率。作为星链星座的一部分,STARLINK-30278 支持偏远地区网络覆盖,助力实现全球宽带连接目标。

基本信息
目录编号:
57668
目录名称:
STARLINK-30278
国际标识:
2023-124F
轨道中心:
EARTH
卫星名称:
星链-30278
卫星全名:
星链-30278 (STARLINK-30278 )
卫星状态:
在轨 (已飞行800 天)
发射日期:
2023-08-22 UTC
国别 :
美国 (US)
星等 :
--
轨道信息
数据来源 国际轨道数据 AOE轨道数据
星历时间 2025-10-30T11:14:13+0800
15小时前
查看轨道信息
2025-10-30T13:00:00+0800
13小时前
查看轨道信息
半长轴 6853.376km 6853.377km
偏心率 0.0001218 0.0002246
轨道倾角 53.161° 53.153°
近地点辐角 93.999° 126.790°
升交点赤经 93.455° 93.126°
平近点角 266.115° 278.208°
近地点 474.406km 473.702km
远地点 476.076km 476.782km
周期 94.106分钟 94.106分钟
每日圈数 15.301923 15.301917
详细信息
固有亮度:
5
最大亮度:
0.3
卫星平台:
Starlink v2.0 mini
覆盖范围:
全球
运营商:
太空探索技术公司
运营商所在国:
美国
制造商(研发单位):
太空探索技术公司
制造商所在国:
美国
使用方式:
暂无
卫星简介
星链(Starlink)计划是由太空探索技术公司(SpaceX)提出的一个巨型低轨卫星互联网星座项目,计划在2019年至2024年间在太空搭建由约1.2万颗卫星组成的“星链”网络,其中1584颗将部署在地球上空550千米处的近地轨道,并从2020年开始工作。该卫星仍在工作。
2D轨道图
3D轨道图
轨道高度分析图
轨道倾角分析图
轨道综合分析图
查看轨道综合分析图